Weather History for St. Joseph, MO

Change the Weather History Date:

Wednesday, May 15, 2013

  Actual Average Record
Temperature  
Mean Temperature 75 °F 64 °F  
Max Temperature 90 °F 75 °F 91 °F (1944)
Min Temperature 60 °F 53 °F 35 °F (1967)
Degree Days  
Heating Degree Days 0 4  
Month to date heating degree days 151 79  
Since 1 July heating degree days 5584 5417  
Cooling Degree Days 10 3  
Month to date cooling degree days 20 25  
Year to date cooling degree days 36 46  
Growing Degree Days 24 (Base 50)    
Moisture  
Dew Point 57 °F    
Average Humidity 55    
Maximum Humidity 78    
Minimum Humidity 31    
Precipitation  
Precipitation 0.00 in 0.16 in 3.20 in (1963)
Month to date precipitation 1.41 2.68  
Year to date precipitation 7.92 10.21  
Sea Level Pressure  
Sea Level Pressure 29.82 in    
Wind  
Wind Speed 8 mph (SSW)    
Max Wind Speed 23 mph    
Max Gust Speed 28 mph    
Visibility 10 miles    
Events      
T = Trace of Precipitation, MM = Missing Value Source: NWS Daily Summary

Daily Weather History Graph

Daily Weather History Graph

Search for Another Location

Airport:

Trip Planner

Search our weather history database for the weather conditions in past years. The results will help you decide how hot, cold, wet, or windy it might be!

Date:

Astronomy

May. 15, 2013 Rise Set
Actual Time 6:04 AM CDT 8:27 PM CDT
Civil Twilight 5:34 AM CDT 8:58 PM CDT
Nautical Twilight 4:56 AM CDT 9:36 PM CDT
Astronomical Twilight 4:14 AM CDT 10:18 PM CDT
Moon 10:41 AM CDT (5/15) 12:14 AM CDT (5/15)
Length of Visible Light 15h 24m
Length of Day
14h 23m
Waxing Crescent, 27% of the Moon is Illuminated
May 15
Waxing Crescent
May 17
First Quarter
May 24
Full
May 31
Last Quarter
Jun 8
New

Hourly Weather History & Observations

Time (CDT) Temp. Heat Index Dew Point Humidity Pressure Visibility Wind Dir Wind Speed Gust Speed Precip Events Conditions
12:53 AM 75.0 °F - 50.0 °F 41% 29.78 in 10.0 mi South 11.5 mph - N/A   Clear
1:53 AM 73.0 °F - 51.1 °F 46% 29.79 in 10.0 mi SSW 11.5 mph - N/A   Clear
2:53 AM 71.1 °F - 51.1 °F 49% 29.80 in 10.0 mi SSW 11.5 mph - N/A   Clear
3:53 AM 68.0 °F - 52.0 °F 56% 29.83 in 10.0 mi West 4.6 mph - N/A   Clear
4:53 AM 60.1 °F - 51.1 °F 72% 29.83 in 10.0 mi Calm Calm - N/A   Clear
5:53 AM 61.0 °F - 51.1 °F 70% 29.84 in 10.0 mi Calm Calm - N/A   Clear
6:53 AM 61.0 °F - 53.1 °F 75% 29.85 in 10.0 mi Calm Calm - N/A   Clear
7:53 AM 70.0 °F - 55.9 °F 61% 29.86 in 10.0 mi Calm Calm - N/A   Clear
8:53 AM 73.9 °F - 55.0 °F 52% 29.87 in 10.0 mi SW 9.2 mph - N/A   Clear
9:53 AM 75.9 °F - 55.0 °F 48% 29.85 in 10.0 mi SSW 9.2 mph - N/A   Clear
10:53 AM 79.0 °F - 55.0 °F 44% 29.86 in 10.0 mi SW 9.2 mph - N/A   Clear
11:53 AM 82.0 °F 81.4 °F 55.0 °F 39% 29.85 in 10.0 mi South 5.8 mph - N/A   Clear
12:53 PM 84.9 °F 83.7 °F 55.9 °F 37% 29.83 in 10.0 mi Variable 3.5 mph - N/A   Clear
1:53 PM 87.1 °F 85.7 °F 55.9 °F 35% 29.82 in 10.0 mi SSW 3.5 mph - N/A   Clear
2:53 PM 87.1 °F 85.1 °F 54.0 °F 32% 29.81 in 10.0 mi Variable 5.8 mph - N/A   Clear
3:53 PM 89.1 °F 87.3 °F 55.9 °F 32% 29.78 in 10.0 mi SE 11.5 mph 18.4 mph N/A   Clear
4:53 PM 89.1 °F 88.0 °F 57.9 °F 35% 29.76 in 10.0 mi SSE 10.4 mph 18.4 mph N/A   Mostly Cloudy
5:53 PM 87.1 °F 86.5 °F 59.0 °F 39% 29.76 in 10.0 mi SSW 11.5 mph - N/A   Partly Cloudy
6:53 PM 84.0 °F 84.5 °F 62.1 °F 47% 29.76 in 10.0 mi South 12.7 mph - N/A   Scattered Clouds
7:53 PM 81.0 °F 82.2 °F 63.0 °F 54% 29.77 in 10.0 mi South 11.5 mph - N/A   Clear
8:53 PM 78.1 °F - 62.1 °F 58% 29.78 in 10.0 mi SSW 15.0 mph - N/A   Clear
9:53 PM 75.0 °F - 63.0 °F 66% 29.83 in 10.0 mi SSW 9.2 mph - N/A   Clear
10:53 PM 73.0 °F - 63.0 °F 71% 29.84 in 10.0 mi SSW 5.8 mph - N/A   Clear
11:32 PM 73.4 °F - 62.6 °F 69% 29.87 in 10.0 mi South 6.9 mph - N/A   Mostly Cloudy
11:53 PM 73.0 °F - 63.0 °F 71% 29.85 in 10.0 mi SSW 12.7 mph 18.4 mph N/A   Overcast